Weather History for Point Lay, AK

Change the Weather History Date:

Monday, December 31, 2012

  Actual Average Record
Temperature  
Mean Temperature -10 °F -  
Max Temperature -4 °F -5 °F 23 °F (2003)
Min Temperature -13 °F -14 °F -38 °F (2006)
Degree Days  
Heating Degree Days 74    
Moisture  
Dew Point -15 °F    
Average Humidity 77    
Maximum Humidity 83    
Minimum Humidity 70    
Precipitation  
Precipitation 0.00 in - - ()
Sea Level Pressure  
Sea Level Pressure 29.90 in    
Wind  
Wind Speed 29 mph (ENE)    
Max Wind Speed 36 mph    
Max Gust Speed 44 mph    
Averages and records for this station are not official NWS values.
T = Trace of Precipitation, MM = Missing Value Source: NWS Daily Summary

Daily Weather History Graph

Daily Weather History Graph

Search for Another Location

Airport:

Trip Planner

Search our weather history database for the weather conditions in past years. The results will help you decide how hot, cold, wet, or windy it might be!

Date:

Astronomy

Dec. 31, 1969 Rise Set
Actual Time Sun does not rise Sun does not rise
Civil Twilight 11:36 AM AKST 4:14 PM AKST
Nautical Twilight 9:54 AM AKST 5:56 PM AKST
Astronomical Twilight 8:37 AM AKST 7:14 PM AKST
Moon 9:09 PM AKST (12/31) 12:24 PM AKST (12/31)
Length of Visible Light 4h 37m
Length of Day
0h 00m
Waning Gibbous, 89% of the Moon is Illuminated
Dec 31
Waning Gibbous
Jan 4
Last Quarter
Jan 11
New
Jan 18
First Quarter
Jan 26
Full

Hourly Weather History & Observations

Time (AKST) Temp. Windchill Dew Point Humidity Pressure Visibility Wind Dir Wind Speed Gust Speed Precip Events Conditions
12:56 AM -13.9 °F -42.3 °F -19.8 °F 75% 29.88 in - NE 24.2 mph - N/A   Overcast
1:56 AM -13.0 °F -42.6 °F -19.8 °F 72% 29.89 in - NE 27.6 mph - N/A   Mostly Cloudy
2:56 AM -11.2 °F -40.6 °F -18.4 °F 70% 29.88 in - ENE 28.8 mph - N/A   Mostly Cloudy
3:56 AM -11.9 °F -40.6 °F -17.9 °F 75% 29.90 in - ENE 26.5 mph 34.5 mph N/A   Mostly Cloudy
4:56 AM -11.9 °F -42.0 °F -17.9 °F 75% 29.90 in - ENE 29.9 mph - N/A   Mostly Cloudy
5:56 AM -10.8 °F -40.1 °F -17.0 °F 74% 29.90 in - ENE 28.8 mph 35.7 mph 0.00 in Snow Light Snow
6:56 AM -9.9 °F -38.4 °F -15.9 °F 75% 29.91 in - ENE 27.6 mph - 0.00 in Snow Light Snow
7:56 AM -10.8 °F -39.7 °F -15.9 °F 78% 29.91 in - ENE 27.6 mph - 0.00 in Snow Light Snow
8:06 AM -11.2 °F -40.6 °F -16.6 °F 77% 29.89 in 0.5 mi NE 28.8 mph 33.4 mph 0.00 in Snow Snow
8:56 AM -9.4 °F -37.3 °F -16.6 °F 71% 29.89 in 0.5 mi NE 26.5 mph - N/A Snow Snow
9:11 AM -9.4 °F -38.2 °F -16.6 °F 71% 29.89 in 0.2 mi NE 28.8 mph 34.5 mph 0.00 in Snow Heavy Snow
9:56 AM -9.9 °F -38.9 °F -15.0 °F 78% 29.91 in 0.2 mi ENE 28.8 mph - 0.00 in Snow Heavy Snow
10:56 AM -9.9 °F -39.7 °F -15.0 °F 78% 29.91 in 0.2 mi ENE 31.1 mph 36.8 mph 0.00 in Snow Heavy Snow
11:03 AM -9.4 °F -38.6 °F -14.8 °F 77% 29.90 in - ENE 29.9 mph - 0.00 in Snow Light Snow
11:56 AM -9.9 °F -39.7 °F -15.0 °F 78% 29.92 in - ENE 31.1 mph 38.0 mph 0.00 in Snow Light Snow
12:56 PM -8.9 °F -37.4 °F -13.9 °F 79% 29.93 in - ENE 28.8 mph - 0.00 in Snow Light Snow
1:56 PM -8.9 °F -39.1 °F -13.9 °F 79% 29.92 in - ENE 33.4 mph 36.8 mph 0.00 in Snow Light Snow
2:56 PM -9.9 °F -39.7 °F -15.0 °F 78% 29.92 in - NE 31.1 mph 35.7 mph 0.00 in Snow Light Snow
3:56 PM -9.9 °F -40.5 °F -15.0 °F 78% 29.91 in - NE 33.4 mph 38.0 mph 0.00 in Snow Light Snow
4:56 PM -8.9 °F -38.7 °F -13.9 °F 79% 29.90 in - NE 32.2 mph 38.0 mph 0.00 in Snow Light Snow
5:56 PM -8.9 °F -37.9 °F -13.9 °F 79% 29.91 in - ENE 29.9 mph - 0.00 in Snow Light Snow
6:56 PM -8.0 °F -37.0 °F -13.0 °F 79% 29.90 in - ENE 31.1 mph - 0.00 in Snow Light Snow
7:56 PM -8.0 °F -37.4 °F -13.0 °F 79% 29.90 in - NE 32.2 mph 38.0 mph 0.00 in Snow Light Snow
8:56 PM -6.9 °F -36.0 °F -11.9 °F 79% 29.88 in - ENE 32.2 mph 39.1 mph 0.00 in Snow Light Snow
9:56 PM -6.9 °F -36.7 °F -10.8 °F 83% 29.87 in - ENE 34.5 mph 40.3 mph 0.00 in Snow Light Snow
10:56 PM -6.0 °F -35.8 °F -10.8 °F 79% 29.86 in - ENE 35.7 mph 42.6 mph 0.00 in Snow Light Snow
11:56 PM -4.9 °F -33.3 °F -9.9 °F 79% 29.86 in - ENE 32.2 mph 43.7 mph 0.00 in Snow Light Snow